Location: Poughquag
(41.6090°N, 73.6820°W)
Time: 01:23:20
(UTC-04:00)

CUBESAT XI-V - Visible Passes

Search period start: 13 April 2024 00:00
Search period end: 23 April 2024 00:00
Orbit: 659 x 681 km, 98.2° (Epoch: 12 April)

Date Brightness Start Highest point End Pass type
(mag) Time Alt. Az. Time Alt. Az. Time Alt. Az.
13 Apr ? 02:31:45 26° NNE 02:31:45 26° NNE 02:33:59 10° N visible
13 Apr ? 04:09:57 10° NW 04:09:57 10° NW 04:10:01 10° NW visible
14 Apr ? 01:26:28 11° NE 01:26:28 11° NE 01:27:15 10° NE visible
14 Apr ? 03:04:39 27° NNW 03:04:39 27° NNW 03:06:48 10° NNW visible
15 Apr ? 01:59:22 20° NE 01:59:22 20° NE 02:01:38 10° NNE visible
15 Apr ? 03:37:34 20° NW 03:37:34 20° NW 03:39:11 10° NNW visible
16 Apr ? 02:32:16 30° NNE 02:32:16 30° NNE 02:34:53 10° N visible
16 Apr ? 04:10:27 12° NW 04:10:27 12° NW 04:10:52 10° NW visible
17 Apr ? 01:26:58 12° NE 01:26:58 12° NE 01:28:12 10° NE visible
17 Apr ? 03:05:10 32° NNW 03:05:10 32° NNW 03:07:40 10° NNW visible
18 Apr ? 01:59:51 22° NE 01:59:51 22° NE 02:02:31 10° NNE visible
18 Apr ? 03:38:03 23° NW 03:38:03 23° NW 03:40:02 10° NNW visible
19 Apr ? 02:32:45 35° NNE 02:32:45 35° NNE 02:35:45 10° N visible
19 Apr ? 04:10:56 13° WNW 04:10:56 13° WNW 04:11:42 10° NW visible
20 Apr ? 01:27:26 12° ENE 01:27:27 12° ENE 01:29:06 10° NE visible
20 Apr ? 03:05:38 38° NNW 03:05:38 38° NNW 03:08:31 10° NNW visible
21 Apr ? 02:00:19 23° NE 02:00:19 23° NE 02:03:22 10° NNE visible
21 Apr ? 03:38:31 25° NW 03:38:31 25° NW 03:40:51 10° NNW visible
22 Apr ? 02:33:12 40° NNE 02:33:12 40° NNE 02:36:34 10° N visible
22 Apr ? 04:11:23 14° WNW 04:11:23 14° WNW 04:12:28 10° NW visible
